Find Starlink 34041

NORAD ID: 63844 Int'l Des: 2025-093 Owner: SPXS Country: US Constellation: starlink operational
LEOCIRCULAR

リアルタイム位置

3D地球を読み込み中...

Starlink 34041について

説明を読み込み中...

次回通過

Passes for default location (London). Set your location on the main map for personalized predictions.

高度履歴

Loading altitude history...

軌道要素

1 63844U 25093J 26106.64583510 .00011733 00000-0 43502-3 0 9993
2 63844 43.0024 223.8447 0002265 252.9308 107.1295 15.27593298 53772
Epoch: Apr 16, 2026 • Age: 20 hours

現在のステータス

高度 482.2 km
速度 7.63 km/s
衛星直下点 13.61°N, 13.28°E
打ち上げ日 May 7, 2025
運用期間 0.9 years
タイプ internet

技術仕様

分類 Payload
質量 575.00 kg
乾燥質量 530.00 kg
総質量 575.00 kg
長さ 0.30 m
直径 4.10 m
スパン 29.00 m
形状 Box + pan
製造者 SPXS
バスタイプ Starlink V2MO
フェーズステータス In Orbit
所有者/国 SPXS/US

Most Searched